Location: Centerville
(32.8776°N, 96.6203°W)
Time: 00:05:57
(UTC+00:00)

Delta 128 - Visible Passes

Search period start: 24 October 2021 00:00
Search period end: 03 November 2021 00:00
Orbit: 608 x 1216 km, 28.0° (Epoch: 23 October)

Date Brightness Start Highest point End Pass type
(mag) Time Alt. Az. Time Alt. Az. Time Alt. Az.
30 Oct 7.3 10:50:30 10° SSE 10:52:58 12° SSE 10:55:26 10° SE visible
31 Oct 7.1 10:53:00 10° S 10:57:28 16° SSE 11:02:02 10° ESE visible
01 Nov 6.8 10:56:28 10° SSW 11:01:59 22° SSE 11:07:40 10° ESE visible
02 Nov 6.5 11:00:21 10° SSW 11:06:30 27° SSE 11:12:57 10° E visible
